Regional Weather Roundup
Issued by NWS

Home | Current Version | Previous Version | Text Only | Print | Product List | Glossary Off
Versions: 1 2 3 4 5 6 7 8 9 10 11 12 13 14 15 16 17 18 19 20 21 22 23 24 25 26 27 28 29 30 31 32 33 34 35 36 37 38 39 40 41 42 43 44 45 46 47 48 49 50

000
ASUS43 KIND 181509
RWRIN

WEATHER ROUNDUP FOR INDIANA
NATIONAL WEATHER SERVICE INDIANAPOLIS IN
1100 AM EDT SAT APR 18 2015

NOTE: "FAIR" INDICATES FEW OR NO CLOUDS BELOW 12,000 FEET WITH NO
SIGNIFICANT WEATHER AND/OR OBSTRUCTIONS TO VISIBILITY.

* - STATION DOES NOT REPORT WEATHER SUCH AS PRECIPITATION OR FOG.

+ - STATION NOT QUALITY CONTROLLED BY THE NATIONAL WEATHER SERVICE.
    USE DATA WITH CAUTION...ESPECIALLY DEWPOINT AND RELATIVE
    HUMIDITY OBSERVATIONS.

INZ001>003-010>013-019-020-181600-
NORTHWEST INDIANA

CITY           SKY/WX    TMP DP  RH WIND       PRES   REMARKS
GARY /AIRPORT/ PTSUNNY   59  39  47 N12G23    30.09R
KNOX *+        MOSUNNY   70  30  23 CALM      30.03F
MICHIGAN CITY+ MOSUNNY   63  41  45 CALM      30.05S
MONTICELLO +   PTSUNNY   70  50  50 CALM      30.04S
RENSSELAER +   MOSUNNY   68  50  52 W5        30.05F
VALPARAISO     MOSUNNY   69  49  48 CALM      30.05R

$$

LMZ046-743>745-181600-
SOUTHERN LAKE MICHIGAN

STATION/POSITION TIME  TEMP WIND        PRES
                       AIR  DIR/SP/G
                 (UTC) (F)  (DEG/KT/KT) (MB)
BURNS HARBOR     1500   51   40/  8/ 10 1018.6S
MICHIGAN CITY    1500   48   30/  7/  8   N/A
4NW MICH CITY    1500   47                N/A

$$

INZ004-005-014>016-021>024-181600-
NORTH CENTRAL INDIANA

CITY           SKY/WX    TMP DP  RH WIND       PRES   REMARKS
ELKHART        SUNNY     70  46  43 CALM      30.05R
GOSHEN         MOSUNNY   70  51  51 NW3       30.04S
LOGANSPORT +   PTSUNNY   70  48  46 W5        30.06S
PERU/GRISSOM   MOSUNNY   71  51  48 NW3       30.04F
ROCHESTER +    MOSUNNY   72  50  46 W5        30.06R
SOUTH BEND     SUNNY     72  49  44 N8        30.05R
WARSAW +       MOSUNNY   72  52  49 NW5       30.05S

$$

INZ006>009-017-018-025>027-181600-
NORTHEAST INDIANA

CITY           SKY/WX    TMP DP  RH WIND       PRES   REMARKS
ANGOLA *+      SUNNY     72  52  49 N6        30.04S
AUBURN +       SUNNY     72  48  43 NW6       30.06R
FORT WAYNE     MOSUNNY   72  49  44 W8        30.06S
HUNTINGTON +   MOSUNNY   71  43  37 W5        30.05S

$$

INZ028-029-035-036-043>045-051>053-181600-
WEST CENTRAL INDIANA

CITY           SKY/WX    TMP DP  RH WIND       PRES   REMARKS
CRAWFORDSVL +  PTSUNNY   68  39  34 CALM      30.05S
GREENCASTLE +  CLOUDY    66  43  42 SE3       30.05S
LAFAYETTE      MOSUNNY   69  51  52 CALM      30.04F
TERRE HAUTE    CLOUDY    68  51  54 SE3       30.03F

$$

INZ030>032-037>040-046>048-054>057-064-065-181600-
CENTRAL INDIANA

CITY           SKY/WX    TMP DP  RH WIND       PRES   REMARKS
ANDERSON       SUNNY     72  41  33 CALM      30.07S
CP ATTERBURY + CLOUDY    68  48  49 SE3       30.06S
COLUMBUS       MOSUNNY   66  45  45 E3        30.06R
FISHERS *+     PTSUNNY   70  48  46 CALM      30.06S
FRANKFORT +    MOSUNNY   71  47  42 CALM      30.06F
GREENWOOD *+   PTSUNNY   68  41  37 SE3       30.06S
INDIANAPOLIS   CLOUDY    68  45  43 E5        30.04S
-EAGLE CREEK   PTSUNNY   68  44  42 SE5       30.04F
KOKOMO *+      MOSUNNY   72  48  43 CALM      30.05S
MARION +       MOSUNNY   69  45  42 CALM      30.06F
MT COMFORT *+  PTSUNNY   72  28  20 S5        30.06S
SHELBYVILLE    PTSUNNY   72  46  39 S3        30.05S
ZIONSVILLE +   PTSUNNY   71  42  35 CALM      30.06S

$$

INZ033-034-041-042-049-050-058-059-181600-
EAST CENTRAL INDIANA

CITY           SKY/WX    TMP DP  RH WIND       PRES   REMARKS
MUNCIE         SUNNY     72  48  42 NE3       30.06F

$$

INZ060-061-067>069-081>083-085>088-181600-
SOUTHWEST INDIANA

CITY           SKY/WX    TMP DP  RH WIND       PRES   REMARKS
EVANSVILLE     MOSUNNY   70  60  70 VRB6      30.02S
HUNTINGBURG *+ PTSUNNY   70  57  64 SE9       30.02F
WASHINGTON +   CLOUDY    67  53  60 CALM      30.02S

$$

INZ062-063-066-070>080-084-089>092-181600-
SOUTH CENTRAL AND SOUTHEAST INDIANA

CITY           SKY/WX    TMP DP  RH WIND       PRES   REMARKS
BEDFORD +      CLOUDY    68  48  49 E3        30.05R
BLOOMINGTON    CLOUDY    69  49  48 SE7       30.04S
MADISON *+     CLOUDY    70  41  35 CALM      30.08R
NORTH VERNON + CLOUDY    72  45  37 CALM      30.06S

$$



USA.gov is the U.S. government's official web portal to all federal, state and local government web resources and services.